Big Bear Station Historical Data
Daily Summary for March 24, 2017 Units:  English    Metric   Both
Next Day »
Daily Weekly Monthly Yearly Custom
  High: Low: Average:
Temperature: 60.3 °F 26.6 °F 40.3 °F
Dew Point: 37.0 °F 19.0 °F 28 °F
Humidity: 86% 31% 65%
Wind Speed: 7.8mph 0.0mph 1.6mph
Wind Gust: -999.0mph - -
Wind- - WSW
Pressure: 30.31 in 30.23 in -
Precipitation: 0.00 in    
Historical Graphs
 
 
Tabular Data for March 24, 2017
Time Temperature Dew Point Pressure Wind Wind Speed Wind Gust Humidity Rainfall Rate (Hourly)
00:09 27.3 °F 22.8 °F 30.25 in Calm   -999.0 mph 83% 0 in
00:24 27.0 °F 21.9 °F 30.25 in Calm   -999.0 mph 81% 0 in
00:40 27.0 °F 21.9 °F 30.25 in Calm   -999.0 mph 81% 0 in
00:55 27.1 °F 22.6 °F 30.25 in South 1.1 mph -999.0 mph 83% 0 in
01:10 27.0 °F 22.8 °F 30.25 in Calm   -999.0 mph 84% 0 in
01:25 26.6 °F 22.7 °F 30.25 in Calm   -999.0 mph 85% 0 in
01:40 27.0 °F 22.8 °F 30.25 in Calm   -999.0 mph 84% 0 in
01:56 27.1 °F 23.2 °F 30.25 in Calm   -999.0 mph 85% 0 in
02:11 27.0 °F 22.2 °F 30.25 in South 2.2 mph -999.0 mph 82% 0 in
02:26 26.8 °F 22.0 °F 30.26 in SSE 1.1 mph -999.0 mph 82% 0 in
02:41 26.6 °F 21.8 °F 30.26 in SSE 1.7 mph -999.0 mph 82% 0 in
02:56 27.0 °F 22.2 °F 30.26 in South 1.7 mph -999.0 mph 82% 0 in
03:12 26.8 °F 22.6 °F 30.25 in Calm   -999.0 mph 84% 0 in
03:27 27.0 °F 22.8 °F 30.25 in Calm   -999.0 mph 84% 0 in
03:42 27.0 °F 23.1 °F 30.24 in Calm   -999.0 mph 85% 0 in
03:57 27.0 °F 23.1 °F 30.25 in Calm   -999.0 mph 85% 0 in
04:13 27.0 °F 23.4 °F 30.25 in Calm   -999.0 mph 86% 0 in
04:28 26.8 °F 22.9 °F 30.25 in Calm   -999.0 mph 85% 0 in
04:43 27.1 °F 22.9 °F 30.25 in Calm   -999.0 mph 84% 0 in
04:59 27.0 °F 22.5 °F 30.25 in Calm   -999.0 mph 83% 0 in
05:14 27.0 °F 22.5 °F 30.25 in Calm   -999.0 mph 83% 0 in
05:29 27.1 °F 20.8 °F 30.26 in Calm   -999.0 mph 77% 0 in
05:44 26.6 °F 21.3 °F 30.26 in Calm   -999.0 mph 80% 0 in
06:00 27.1 °F 22.0 °F 30.26 in Calm   -999.0 mph 81% 0 in
06:15 27.3 °F 22.2 °F 30.26 in Calm   -999.0 mph 81% 0 in
06:31 26.8 °F 21.8 °F 30.26 in Calm   -999.0 mph 81% 0 in
06:46 27.1 °F 21.2 °F 30.27 in Calm   -999.0 mph 78% 0 in
07:01 27.0 °F 21.9 °F 30.27 in Calm   -999.0 mph 81% 0 in
07:16 27.1 °F 21.8 °F 30.27 in Calm   -999.0 mph 80% 0 in
07:31 27.9 °F 21.9 °F 30.28 in Calm   -999.0 mph 78% 0 in
07:47 28.0 °F 22.3 °F 30.28 in Calm   -999.0 mph 79% 0 in
08:02 28.6 °F 22.9 °F 30.28 in Calm   -999.0 mph 79% 0 in
08:17 30.0 °F 23.7 °F 30.28 in Calm   -999.0 mph 77% 0 in
08:32 31.8 °F 24.5 °F 30.28 in Calm   -999.0 mph 74% 0 in
08:48 32.9 °F 24.5 °F 30.28 in Calm   -999.0 mph 71% 0 in
09:03 34.7 °F 24.9 °F 30.28 in Calm   -999.0 mph 67% 0 in
09:18 36.1 °F 25.8 °F 30.28 in Calm   -999.0 mph 66% 0 in
09:34 37.9 °F 28.3 °F 30.29 in Calm   -999.0 mph 68% 0 in
09:49 40.5 °F 27.7 °F 30.29 in Calm   -999.0 mph 60% 0 in
10:04 43.0 °F 29.6 °F 30.29 in Calm   -999.0 mph 59% 0 in
10:19 46.6 °F 21.7 °F 30.30 in North 2.2 mph -999.0 mph 37% 0 in
10:35 48.2 °F 19.0 °F 30.30 in NNW 3.2 mph -999.0 mph 31% 0 in
10:50 50.7 °F 21.9 °F 30.30 in WNW 2.7 mph -999.0 mph 32% 0 in
11:05 52.2 °F 24.7 °F 30.31 in NW 3.2 mph -999.0 mph 34% 0 in
11:20 53.1 °F 26.2 °F 30.30 in NW 3.2 mph -999.0 mph 35% 0 in
11:35 53.8 °F 25.3 °F 30.30 in WNW 3.7 mph -999.0 mph 33% 0 in
11:51 55.0 °F 28.5 °F 30.30 in North 3.2 mph -999.0 mph 36% 0 in
12:06 55.2 °F 28.7 °F 30.30 in NW 4.2 mph -999.0 mph 36% 0 in
12:21 55.8 °F 30.6 °F 30.29 in NNW 4.2 mph -999.0 mph 38% 0 in
12:37 56.3 °F 30.3 °F 30.30 in WNW 4.2 mph -999.0 mph 37% 0 in
12:52 56.7 °F 32.6 °F 30.30 in NW 3.7 mph -999.0 mph 40% 0 in
13:07 57.0 °F 34.1 °F 30.29 in North 4.2 mph -999.0 mph 42% 0 in
13:23 58.5 °F 33.6 °F 30.29 in North 1.7 mph -999.0 mph 39% 0 in
13:38 59.5 °F 34.5 °F 30.28 in NNW 4.2 mph -999.0 mph 39% 0 in
13:53 60.3 °F 34.6 °F 30.28 in WNW 3.7 mph -999.0 mph 38% 0 in
14:08 59.0 °F 32.1 °F 30.27 in SW 2.7 mph -999.0 mph 36% 0 in
14:24 59.4 °F 31.7 °F 30.27 in South 4.7 mph -999.0 mph 35% 0 in
14:39 59.0 °F 32.1 °F 30.27 in SW 2.2 mph -999.0 mph 36% 0 in
14:54 58.3 °F 32.8 °F 30.27 in West 1.1 mph -999.0 mph 38% 0 in
15:10 57.7 °F 32.9 °F 30.27 in NW 7.8 mph -999.0 mph 39% 0 in
15:25 56.7 °F 34.4 °F 30.26 in WNW 3.7 mph -999.0 mph 43% 0 in
15:55 57.2 °F 31.8 °F 30.25 in SW 3.2 mph -999.0 mph 38% 0 in
16:10 57.0 °F 34.1 °F 30.25 in SW 2.7 mph -999.0 mph 42% 0 in
16:26 54.9 °F 31.6 °F 30.25 in NNE 1.1 mph -999.0 mph 41% 0 in
16:41 54.1 °F 32.7 °F 30.25 in NW 2.2 mph -999.0 mph 44% 0 in
16:56 54.3 °F 32.3 °F 30.24 in West 1.7 mph -999.0 mph 43% 0 in
17:11 54.5 °F 31.9 °F 30.24 in WNW 3.7 mph -999.0 mph 42% 0 in
17:27 53.2 °F 36.5 °F 30.24 in NW 4.2 mph -999.0 mph 53% 0 in
17:42 50.4 °F 37.0 °F 30.24 in NW 3.7 mph -999.0 mph 60% 0 in
17:57 47.5 °F 34.7 °F 30.25 in NW 2.7 mph -999.0 mph 61% 0 in
18:12 46.9 °F 34.6 °F 30.25 in WNW 3.2 mph -999.0 mph 62% 0 in
18:28 45.5 °F 34.0 °F 30.24 in NNW 3.2 mph -999.0 mph 64% 0 in
18:43 44.6 °F 33.2 °F 30.24 in South 1.1 mph -999.0 mph 64% 0 in
18:59 43.9 °F 32.5 °F 30.24 in South 1.7 mph -999.0 mph 64% 0 in
19:14 42.8 °F 32.2 °F 30.24 in SE 1.7 mph -999.0 mph 66% 0 in
19:30 42.1 °F 32.3 °F 30.24 in SSE 1.1 mph -999.0 mph 68% 0 in
19:45 41.2 °F 31.8 °F 30.24 in SSE 2.2 mph -999.0 mph 69% 0 in
20:00 40.6 °F 31.9 °F 30.24 in SE 1.1 mph -999.0 mph 71% 0 in
20:15 40.5 °F 32.5 °F 30.24 in SSW 1.7 mph -999.0 mph 73% 0 in
20:30 40.3 °F 32.3 °F 30.24 in South 1.7 mph -999.0 mph 73% 0 in
21:01 39.7 °F 32.1 °F 30.24 in South 2.2 mph -999.0 mph 74% 0 in
21:16 39.9 °F 31.6 °F 30.24 in Calm   -999.0 mph 72% 0 in
21:32 39.4 °F 32.1 °F 30.25 in SSE 2.2 mph -999.0 mph 75% 0 in
21:47 39.0 °F 32.4 °F 30.24 in SSE 1.7 mph -999.0 mph 77% 0 in
22:02 38.8 °F 32.8 °F 30.24 in Calm   -999.0 mph 79% 0 in
22:32 38.8 °F 33.8 °F 30.24 in Calm   -999.0 mph 82% 0 in
22:48 39.9 °F 34.9 °F 30.23 in NE 3.2 mph -999.0 mph 82% 0 in
23:03 39.9 °F 34.9 °F 30.23 in Calm   -999.0 mph 82% 0 in
23:18 39.6 °F 34.6 °F 30.23 in NW 2.7 mph -999.0 mph 82% 0 in
23:34 39.4 °F 34.7 °F 30.23 in NNE 2.2 mph -999.0 mph 83% 0 in
23:49 39.6 °F 34.9 °F 30.23 in NNW 2.2 mph -999.0 mph 83% 0 in
Big Bear CA Weather